User: anonymous   Login
Location: Goheenville
(40.9070°N, 79.3720°W)
Time: 04:53:18
(UTC-04:00)
Language:

Cosmos 1727 Rocket - Orbit

View from above orbital plane
View from above orbital plane
View from above satellite
View from above satellite

Ground track
Ground track

The orbit data is extracted from the following two-line orbital elements,

1 16511U 86008B   18111.81376031 +.00000058 +00000-0 +43553-4 0  9994
2 16511 082.9462 351.0460 0025033 138.0949 275.1711 13.75819931618458
Epoch (UTC): 21 April 2018 19:31:48
Eccentricity: 0.0025033
inclination: 82.9462°
perigee height: 960 km
apogee height: 997 km
right ascension of ascending node: 351.0460°
argument of perigee: 138.0949°
revolutions per day: 13.75819931
mean anomaly at epoch: 275.1711°
orbit number at epoch: 61845

The dashed part of the orbit path shows where the satellite is in the earth's shadow,  

DLR